TimeMST,TemperatureF,Dew PointF,Humidity,Sea Level PressureIn,VisibilityMPH,Wind Direction,Wind SpeedMPH,Gust SpeedMPH,PrecipitationIn,Events,Conditions,WindDirDegrees,DateUTC
12:53 AM,21.9,14.0,72,29.67,10.0,Calm,Calm,-,N/A,,Clear,0,2012-12-16 07:53:00
1:53 AM,21.0,14.0,74,29.65,10.0,Calm,Calm,-,N/A,,Clear,0,2012-12-16 08:53:00
2:53 AM,23.0,16.0,74,29.64,10.0,Calm,Calm,-,N/A,,Partly Cloudy,0,2012-12-16 09:53:00
3:53 AM,21.9,16.0,78,29.64,10.0,NNW,4.6,-,N/A,,Overcast,340,2012-12-16 10:53:00
4:53 AM,23.0,16.0,74,29.62,10.0,NW,5.8,-,N/A,,Mostly Cloudy,310,2012-12-16 11:53:00
5:53 AM,21.9,15.1,75,29.62,10.0,WNW,8.1,-,N/A,,Partly Cloudy,290,2012-12-16 12:53:00
6:53 AM,21.0,15.1,78,29.65,10.0,WNW,8.1,-,N/A,,Clear,300,2012-12-16 13:53:00
7:53 AM,24.1,14.0,65,29.65,10.0,NW,3.5,-,N/A,,Clear,320,2012-12-16 14:53:00
8:53 AM,23.0,15.1,72,29.68,10.0,WNW,3.5,-,N/A,,Clear,300,2012-12-16 15:53:00
9:53 AM,30.0,15.1,54,29.68,10.0,Calm,Calm,-,N/A,,Mostly Cloudy,0,2012-12-16 16:53:00
10:53 AM,33.1,14.0,46,29.68,10.0,Calm,Calm,-,N/A,,Overcast,0,2012-12-16 17:53:00
11:53 AM,34.0,10.0,37,29.66,10.0,North,6.9,-,N/A,,Overcast,360,2012-12-16 18:53:00
12:53 PM,34.0,10.0,37,29.68,10.0,North,6.9,-,N/A,,Overcast,350,2012-12-16 19:53:00
1:53 PM,35.1,9.0,34,29.70,10.0,North,6.9,-,N/A,,Overcast,360,2012-12-16 20:53:00
2:53 PM,33.1,10.9,40,29.72,10.0,North,5.8,-,N/A,,Overcast,350,2012-12-16 21:53:00
3:53 PM,32.0,12.0,44,29.74,10.0,Calm,Calm,-,N/A,,Overcast,0,2012-12-16 22:53:00
4:53 PM,30.0,12.0,47,29.75,10.0,Calm,Calm,-,N/A,,Partly Cloudy,0,2012-12-16 23:53:00
5:53 PM,21.9,10.9,63,29.80,10.0,SW,8.1,-,N/A,,Clear,230,2012-12-17 00:53:00
6:53 PM,21.0,10.9,65,29.82,10.0,WSW,4.6,-,N/A,,Clear,250,2012-12-17 01:53:00
7:53 PM,21.0,9.0,60,29.81,10.0,West,3.5,-,N/A,,Partly Cloudy,260,2012-12-17 02:53:00
8:53 PM,21.0,10.0,63,29.81,10.0,WNW,3.5,-,N/A,,Mostly Cloudy,290,2012-12-17 03:53:00
9:53 PM,19.9,10.0,65,29.79,10.0,WSW,4.6,-,N/A,,Clear,250,2012-12-17 04:53:00
10:53 PM,17.1,9.0,71,29.78,10.0,WSW,3.5,-,N/A,,Clear,250,2012-12-17 05:53:00
11:53 PM,19.0,9.0,65,29.74,10.0,WSW,4.6,-,N/A,,Clear,240,2012-12-17 06:53:00